Station Historical Data
Daily Summary for May 16, 2017 Units:  English    Metric   Both
Next Day »
Daily Weekly Monthly Yearly Custom
  High: Low: Average:
Temperature: 52.2 °F 47.1 °F 49.4 °F
Dew Point: 46.0 °F 40.0 °F 43 °F
Humidity: 92% 67% 79%
Wind Speed: 16.0mph 0.0mph 6mph
Wind Gust: 24.0mph - -
Wind- - SSE
Pressure: 30.03 in 29.91 in -
Precipitation: 0.00 in    
Historical Graphs
 
 
Tabular Data for May 16, 2017
Time Temperature Dew Point Pressure Wind Wind Speed Wind Gust Humidity Rainfall Rate (Hourly) solar Conditions
00:02 52.2 °F 43.1 °F 29.94 in SE 4.0 mph 8.0 mph 71% 0.00 in 0.00 W/m2
00:07 52.1 °F 43.4 °F 29.94 in SE 4.0 mph 8.0 mph 72% 0.00 in 0.00 W/m2
00:12 52.0 °F 43.3 °F 29.94 in SE 4.0 mph 8.0 mph 72% 0.00 in 0.00 W/m2
00:17 51.9 °F 43.2 °F 29.94 in SE 4.0 mph 8.0 mph 72% 0.00 in 0.00 W/m2
00:22 51.8 °F 43.4 °F 29.94 in ESE 2.0 mph 13.0 mph 73% 0.00 in 0.00 W/m2
00:27 51.7 °F 43.3 °F 29.94 in ESE 2.0 mph 12.0 mph 73% 0.00 in 0.00 W/m2
00:28 51.7 °F 43.3 °F 29.93 in ESE 6.0 mph 12.0 mph 73% 0.00 in 0.00 W/m2
00:33 51.5 °F 43.1 °F 29.93 in ESE 1.0 mph 12.0 mph 73% 0.00 in 0.00 W/m2
00:38 51.4 °F 43.4 °F 29.93 in ESE 4.0 mph 11.0 mph 74% 0.00 in 0.00 W/m2
00:43 51.3 °F 43.3 °F 29.93 in ESE 6.0 mph 15.0 mph 74% 0.00 in 0.00 W/m2
00:48 51.3 °F 43.3 °F 29.93 in ESE 8.0 mph 14.0 mph 74% 0.00 in 0.00 W/m2
00:53 51.2 °F 43.2 °F 29.93 in ESE 7.0 mph 12.0 mph 74% 0.00 in 0.00 W/m2
00:58 51.1 °F 43.1 °F 29.93 in ESE 7.0 mph 15.0 mph 74% 0.00 in 0.00 W/m2
01:03 51.0 °F 43.0 °F 29.93 in ESE 4.0 mph 15.0 mph 74% 0.00 in 0.00 W/m2
01:08 51.0 °F 43.0 °F 29.93 in ESE 8.0 mph 14.0 mph 74% 0.00 in 0.00 W/m2
01:13 50.9 °F 42.9 °F 29.93 in ESE 7.0 mph 13.0 mph 74% 0.00 in 0.00 W/m2
01:18 50.8 °F 42.8 °F 29.93 in ESE 8.0 mph 13.0 mph 74% 0.00 in 0.00 W/m2
01:23 50.8 °F 42.8 °F 29.93 in East 12.0 mph 14.0 mph 74% 0.00 in 0.00 W/m2
01:28 50.8 °F 42.8 °F 29.93 in ESE 2.0 mph 15.0 mph 74% 0.00 in 0.00 W/m2
01:33 50.7 °F 42.7 °F 29.93 in ESE 8.0 mph 15.0 mph 74% 0.00 in 0.00 W/m2
01:34 50.7 °F 42.7 °F 29.93 in ESE 7.0 mph 15.0 mph 74% 0.00 in 0.00 W/m2
01:39 50.7 °F 42.7 °F 29.93 in ESE 9.0 mph 14.0 mph 74% 0.00 in 0.00 W/m2
01:44 50.6 °F 42.6 °F 29.93 in ESE 1.0 mph 11.0 mph 74% 0.00 in 0.00 W/m2
01:49 50.6 °F 43.0 °F 29.93 in ESE 5.0 mph 11.0 mph 75% 0.00 in 0.00 W/m2
01:54 50.6 °F 43.0 °F 29.92 in ESE 4.0 mph 9.0 mph 75% 0.00 in 0.00 W/m2
01:59 50.6 °F 42.6 °F 29.92 in ESE 1.0 mph 15.0 mph 74% 0.00 in 0.00 W/m2
02:04 50.5 °F 42.5 °F 29.92 in ESE 4.0 mph 12.0 mph 74% 0.00 in 0.00 W/m2
02:05 50.5 °F 42.5 °F 29.92 in ESE 4.0 mph 12.0 mph 74% 0.00 in 0.00 W/m2
02:10 50.5 °F 42.5 °F 29.92 in East 5.0 mph 13.0 mph 74% 0.00 in 0.00 W/m2
02:15 50.5 °F 42.5 °F 29.92 in ESE 7.0 mph 15.0 mph 74% 0.00 in 0.00 W/m2
02:20 50.4 °F 42.4 °F 29.91 in ESE 4.0 mph 15.0 mph 74% 0.00 in 0.00 W/m2
02:25 50.4 °F 42.4 °F 29.91 in ESE 6.0 mph 14.0 mph 74% 0.00 in 0.00 W/m2
02:30 50.3 °F 42.3 °F 29.91 in ESE 7.0 mph 15.0 mph 74% 0.00 in 0.00 W/m2
02:35 50.3 °F 42.3 °F 29.91 in ESE 8.0 mph 12.0 mph 74% 0.00 in 0.00 W/m2
02:40 50.2 °F 42.2 °F 29.91 in ESE 9.0 mph 12.0 mph 74% 0.00 in 0.00 W/m2
02:45 50.1 °F 42.2 °F 29.91 in ESE 11.0 mph 14.0 mph 74% 0.00 in 0.00 W/m2
02:50 50.1 °F 42.2 °F 29.91 in East 4.0 mph 14.0 mph 74% 0.00 in 0.00 W/m2
02:55 50.1 °F 42.2 °F 29.91 in ESE 6.0 mph 14.0 mph 74% 0.00 in 0.00 W/m2
03:00 50.0 °F 42.0 °F 29.91 in ESE 9.0 mph 12.0 mph 74% 0.00 in 0.00 W/m2
03:05 50.0 °F 42.0 °F 29.91 in ESE 7.0 mph 15.0 mph 74% 0.00 in 0.00 W/m2
03:10 50.0 °F 42.0 °F 29.91 in ESE 5.0 mph 14.0 mph 74% 0.00 in 0.00 W/m2
03:15 49.9 °F 42.0 °F 29.91 in ESE 6.0 mph 12.0 mph 74% 0.00 in 0.00 W/m2
03:20 49.9 °F 42.3 °F 29.92 in ESE 11.0 mph 12.0 mph 75% 0.00 in 0.00 W/m2
03:25 49.8 °F 42.2 °F 29.92 in ESE 5.0 mph 12.0 mph 75% 0.00 in 0.00 W/m2
03:30 49.7 °F 41.8 °F 29.92 in ESE 4.0 mph 13.0 mph 74% 0.00 in 0.00 W/m2
03:35 49.6 °F 42.0 °F 29.92 in ESE 5.0 mph 12.0 mph 75% 0.00 in 0.00 W/m2
03:40 49.5 °F 41.9 °F 29.91 in ESE 4.0 mph 14.0 mph 75% 0.00 in 0.00 W/m2
03:45 49.4 °F 41.8 °F 29.91 in SE 2.0 mph 13.0 mph 75% 0.00 in 0.00 W/m2
03:50 49.3 °F 42.1 °F 29.91 in SE 5.0 mph 15.0 mph 76% 0.00 in 0.00 W/m2
03:55 49.1 °F 41.9 °F 29.91 in SE 7.0 mph 13.0 mph 76% 0.00 in 0.00 W/m2
04:00 49.0 °F 41.8 °F 29.91 in SE 4.0 mph 14.0 mph 76% 0.00 in 0.00 W/m2
04:05 48.8 °F 41.6 °F 29.92 in SE 5.0 mph 12.0 mph 76% 0.00 in 0.00 W/m2
04:10 48.7 °F 41.5 °F 29.92 in SE 4.0 mph 12.0 mph 76% 0.00 in 0.00 W/m2
04:15 48.6 °F 41.4 °F 29.92 in SE 4.0 mph 9.0 mph 76% 0.00 in 0.00 W/m2
04:20 48.5 °F 41.6 °F 29.92 in SE 6.0 mph 11.0 mph 77% 0.00 in 0.00 W/m2
04:25 48.4 °F 41.5 °F 29.92 in SE 1.0 mph 11.0 mph 77% 0.00 in 0.00 W/m2
04:30 48.3 °F 41.4 °F 29.92 in SE 6.0 mph 11.0 mph 77% 0.00 in 0.00 W/m2
04:35 48.3 °F 41.4 °F 29.92 in SE 5.0 mph 10.0 mph 77% 0.00 in 0.00 W/m2
04:40 48.2 °F 41.7 °F 29.92 in SSE 10.0 mph 10.0 mph 78% 0.00 in 0.00 W/m2
04:45 48.1 °F 41.6 °F 29.92 in SSE 7.0 mph 10.0 mph 78% 0.00 in 0.00 W/m2
04:51 48.0 °F 41.5 °F 29.92 in SSE 6.0 mph 10.0 mph 78% 0.00 in 0.00 W/m2
04:56 47.9 °F 41.4 °F 29.92 in SE 11.0 mph 15.0 mph 78% 0.00 in 0.00 W/m2
05:00 47.9 °F 41.4 °F 29.92 in SE 5.0 mph 13.0 mph 78% 0.00 in 0.00 W/m2
05:06 47.8 °F 41.3 °F 29.92 in SE 8.0 mph 9.0 mph 78% 0.00 in 0.00 W/m2
05:11 47.7 °F 41.5 °F 29.92 in SE 6.0 mph 10.0 mph 79% 0.00 in 0.00 W/m2
05:16 47.7 °F 41.2 °F 29.92 in SE 8.0 mph 10.0 mph 78% 0.00 in 0.00 W/m2
05:21 47.6 °F 41.4 °F 29.92 in SE 5.0 mph 7.0 mph 79% 0.00 in 0.00 W/m2
05:26 47.6 °F 41.4 °F 29.92 in SE 11.0 mph 11.0 mph 79% 0.00 in 0.00 W/m2
05:31 47.5 °F 41.3 °F 29.92 in SE 9.0 mph 12.0 mph 79% 0.00 in 0.00 W/m2
05:36 47.4 °F 41.2 °F 29.92 in SE 13.0 mph 13.0 mph 79% 0.00 in 0.00 W/m2
05:41 47.3 °F 41.1 °F 29.92 in SE 6.0 mph 13.0 mph 79% 0.00 in 0.00 W/m2
05:46 47.2 °F 41.0 °F 29.92 in SSE 6.0 mph 11.0 mph 79% 0.00 in 0.00 W/m2
05:51 47.2 °F 41.0 °F 29.92 in SE 7.0 mph 7.0 mph 79% 0.00 in 0.00 W/m2
05:56 47.2 °F 41.0 °F 29.92 in SE 5.0 mph 10.0 mph 79% 0.00 in 5.00 W/m2
06:01 47.1 °F 40.9 °F 29.92 in SE 5.0 mph 5.0 mph 79% 0.00 in 9.00 W/m2
06:06 47.2 °F 41.0 °F 29.92 in SSE 7.0 mph 10.0 mph 79% 0.00 in 12.00 W/m2
06:11 47.2 °F 41.0 °F 29.92 in SSE 4.0 mph 4.0 mph 79% 0.00 in 14.00 W/m2
06:16 47.2 °F 41.4 °F 29.92 in SSE 8.0 mph 14.0 mph 80% 0.00 in 16.00 W/m2
06:21 47.2 °F 41.0 °F 29.92 in SE 6.0 mph 14.0 mph 79% 0.00 in 16.00 W/m2
06:26 47.3 °F 41.1 °F 29.92 in SSE 6.0 mph 6.0 mph 79% 0.00 in 16.00 W/m2
06:31 47.4 °F 41.2 °F 29.92 in SSE 11.0 mph 13.0 mph 79% 0.00 in 16.00 W/m2
06:36 47.4 °F 41.2 °F 29.92 in SSE 7.0 mph 13.0 mph 79% 0.00 in 18.00 W/m2
06:41 47.5 °F 41.3 °F 29.93 in SSE 2.0 mph 11.0 mph 79% 0.00 in 19.00 W/m2
06:46 47.6 °F 41.4 °F 29.93 in SSE 6.0 mph 11.0 mph 79% 0.00 in 21.00 W/m2
06:51 47.6 °F 41.4 °F 29.93 in SE 2.0 mph 12.0 mph 79% 0.00 in 28.00 W/m2
06:56 47.7 °F 41.5 °F 29.94 in SE 5.0 mph 13.0 mph 79% 0.00 in 47.00 W/m2
07:01 47.8 °F 41.6 °F 29.94 in SE 5.0 mph 12.0 mph 79% 0.00 in 67.00 W/m2
07:06 47.9 °F 41.7 °F 29.94 in SE 2.0 mph 2.0 mph 79% 0.00 in 81.00 W/m2
07:11 48.0 °F 41.8 °F 29.94 in SSE 2.0 mph 2.0 mph 79% 0.00 in 97.00 W/m2
07:16 48.1 °F 41.9 °F 29.95 in SSE 5.0 mph 5.0 mph 79% 0.00 in 116.00 W/m2
07:21 48.2 °F 41.7 °F 29.95 in SSE 8.0 mph 11.0 mph 78% 0.00 in 144.00 W/m2
07:26 48.3 °F 41.4 °F 29.95 in SSE 4.0 mph 11.0 mph 77% 0.00 in 151.00 W/m2
07:31 48.5 °F 41.6 °F 29.95 in SSE 4.0 mph 10.0 mph 77% 0.00 in 155.00 W/m2
07:36 48.7 °F 41.5 °F 29.95 in Calm     76% 0.00 in 156.00 W/m2
07:41 48.8 °F 41.6 °F 29.96 in South 6.0 mph 6.0 mph 76% 0.00 in 139.00 W/m2
07:46 48.9 °F 41.3 °F 29.96 in South 4.0 mph 7.0 mph 75% 0.00 in 118.00 W/m2
07:51 49.1 °F 41.5 °F 29.96 in South 3.0 mph 4.0 mph 75% 0.00 in 107.00 W/m2
07:56 49.2 °F 41.6 °F 29.96 in SSW 5.0 mph 5.0 mph 75% 0.00 in 109.00 W/m2
08:01 49.3 °F 42.1 °F 29.96 in SSE 4.0 mph 5.0 mph 76% 0.00 in 111.00 W/m2
08:06 49.3 °F 42.4 °F 29.96 in SSE 4.0 mph 7.0 mph 77% 0.00 in 109.00 W/m2
08:11 49.3 °F 42.4 °F 29.96 in SSE 9.0 mph 9.0 mph 77% 0.00 in 127.00 W/m2
08:16 49.3 °F 42.4 °F 29.96 in South 12.0 mph 13.0 mph 77% 0.00 in 141.00 W/m2
08:21 49.2 °F 42.0 °F 29.96 in South 10.0 mph 17.0 mph 76% 0.00 in 149.00 W/m2
08:26 49.2 °F 42.0 °F 29.96 in South 4.0 mph 9.0 mph 76% 0.00 in 199.00 W/m2
08:31 49.2 °F 41.6 °F 29.96 in South 10.0 mph 16.0 mph 75% 0.00 in 209.00 W/m2
08:36 49.1 °F 41.5 °F 29.96 in SSE 8.0 mph 10.0 mph 75% 0.00 in 190.00 W/m2
08:41 49.2 °F 41.6 °F 29.96 in SSE 4.0 mph 8.0 mph 75% 0.00 in 214.00 W/m2
08:46 49.2 °F 41.3 °F 29.96 in SSE 10.0 mph 10.0 mph 74% 0.00 in 244.00 W/m2
08:51 49.2 °F 40.9 °F 29.96 in SE 4.0 mph 10.0 mph 73% 0.00 in 218.00 W/m2
08:56 49.3 °F 40.7 °F 29.96 in SSE 10.0 mph 10.0 mph 72% 0.00 in 271.00 W/m2
09:01 49.4 °F 41.1 °F 29.96 in SSE 13.0 mph 13.0 mph 73% 0.00 in 325.00 W/m2
09:06 49.4 °F 40.8 °F 29.96 in South 9.0 mph 9.0 mph 72% 0.00 in 313.00 W/m2
09:11 49.6 °F 41.3 °F 29.97 in South 10.0 mph 13.0 mph 73% 0.00 in 283.00 W/m2
09:16 49.7 °F 41.0 °F 29.97 in SSW 3.0 mph 7.0 mph 72% 0.00 in 193.00 W/m2
09:21 49.8 °F 41.2 °F 29.97 in South 14.0 mph 15.0 mph 72% 0.00 in 190.00 W/m2
09:26 49.8 °F 40.8 °F 29.97 in South 6.0 mph 6.0 mph 71% 0.00 in 246.00 W/m2
09:31 49.9 °F 41.2 °F 29.97 in South 4.0 mph 6.0 mph 72% 0.00 in 320.00 W/m2
09:36 49.9 °F 41.2 °F 29.97 in SSE 7.0 mph 15.0 mph 72% 0.00 in 311.00 W/m2
09:41 49.9 °F 40.9 °F 29.97 in South 7.0 mph 9.0 mph 71% 0.00 in 309.00 W/m2
09:46 50.0 °F 41.0 °F 29.97 in South 12.0 mph 16.0 mph 71% 0.00 in 260.00 W/m2
09:51 50.0 °F 40.6 °F 29.97 in SSE 8.0 mph 9.0 mph 70% 0.00 in 248.00 W/m2
09:56 50.0 °F 41.0 °F 29.97 in SSE 14.0 mph 14.0 mph 71% 0.00 in 234.00 W/m2
10:01 50.1 °F 41.1 °F 29.97 in SSE 6.0 mph 6.0 mph 71% 0.00 in 290.00 W/m2
10:06 50.1 °F 41.4 °F 29.97 in SSW 7.0 mph 10.0 mph 72% 0.00 in 290.00 W/m2
10:11 50.1 °F 41.4 °F 29.98 in Calm   6.0 mph 72% 0.00 in 287.00 W/m2
10:16 50.2 °F 41.5 °F 29.98 in South 2.0 mph 6.0 mph 72% 0.00 in 290.00 W/m2
10:21 50.2 °F 41.9 °F 29.98 in SSW 11.0 mph 11.0 mph 73% 0.00 in 274.00 W/m2
10:26 50.3 °F 41.6 °F 29.99 in Calm     72% 0.00 in 271.00 W/m2
10:31 50.3 °F 41.6 °F 29.98 in SSW 6.0 mph 8.0 mph 72% 0.00 in 269.00 W/m2
10:36 50.3 °F 41.6 °F 29.99 in SSW 5.0 mph 12.0 mph 72% 0.00 in 251.00 W/m2
10:41 50.3 °F 41.6 °F 29.99 in Calm   5.0 mph 72% 0.00 in 253.00 W/m2
10:46 50.2 °F 41.5 °F 29.99 in SSW 7.0 mph 10.0 mph 72% 0.00 in 262.00 W/m2
10:51 50.1 °F 41.8 °F 29.99 in SSW 9.0 mph 16.0 mph 73% 0.00 in 285.00 W/m2
10:52 50.1 °F 41.8 °F 29.99 in South 5.0 mph 16.0 mph 73% 0.00 in 285.00 W/m2
10:57 50.0 °F 42.0 °F 29.99 in SSW 3.0 mph 8.0 mph 74% 0.00 in 262.00 W/m2
11:02 50.0 °F 42.0 °F 29.99 in SSE 10.0 mph 12.0 mph 74% 0.00 in 251.00 W/m2
11:07 49.9 °F 41.6 °F 29.99 in South 3.0 mph 10.0 mph 73% 0.00 in 237.00 W/m2
11:10 49.9 °F 41.6 °F 29.99 in South 7.0 mph 14.0 mph 73% 0.00 in 246.00 W/m2
11:15 49.9 °F 41.2 °F 29.99 in South 9.0 mph 15.0 mph 72% 0.00 in 271.00 W/m2
11:20 49.9 °F 41.2 °F 29.99 in South 8.0 mph 14.0 mph 72% 0.00 in 274.00 W/m2
11:25 49.9 °F 41.6 °F 30.00 in SSW 4.0 mph 9.0 mph 73% 0.00 in 295.00 W/m2
11:30 49.9 °F 41.6 °F 30.00 in South 9.0 mph 12.0 mph 73% 0.00 in 302.00 W/m2
11:35 50.0 °F 41.3 °F 30.00 in SSW 1.0 mph 10.0 mph 72% 0.00 in 264.00 W/m2
11:40 50.1 °F 41.4 °F 30.01 in SSE 8.0 mph 13.0 mph 72% 0.00 in 239.00 W/m2
11:45 50.2 °F 41.5 °F 30.01 in SSW 5.0 mph 9.0 mph 72% 0.00 in 243.00 W/m2
11:50 50.2 °F 41.2 °F 30.01 in SSW 5.0 mph 10.0 mph 71% 0.00 in 267.00 W/m2
11:55 50.3 °F 40.9 °F 30.01 in SSE 2.0 mph 10.0 mph 70% 0.00 in 302.00 W/m2
12:00 50.2 °F 40.8 °F 30.01 in SSE 4.0 mph 10.0 mph 70% 0.00 in 295.00 W/m2
12:05 50.2 °F 40.8 °F 30.01 in South 5.0 mph 11.0 mph 70% 0.00 in 323.00 W/m2
12:10 50.2 °F 41.2 °F 30.02 in South 10.0 mph 12.0 mph 71% 0.00 in 318.00 W/m2
12:15 50.2 °F 40.8 °F 30.02 in SE 9.0 mph 12.0 mph 70% 0.00 in 290.00 W/m2
12:20 50.2 °F 40.8 °F 30.02 in South 9.0 mph 14.0 mph 70% 0.00 in 260.00 W/m2
12:25 50.2 °F 40.4 °F 30.02 in South 12.0 mph 15.0 mph 69% 0.00 in 237.00 W/m2
12:30 50.1 °F 40.3 °F 30.02 in South 7.0 mph 16.0 mph 69% 0.00 in 257.00 W/m2
12:35 50.0 °F 40.6 °F 30.03 in South 9.0 mph 15.0 mph 70% 0.00 in 283.00 W/m2
12:40 50.0 °F 40.6 °F 30.03 in SSE 10.0 mph 14.0 mph 70% 0.00 in 327.00 W/m2
12:45 50.0 °F 40.2 °F 30.03 in Calm   9.0 mph 69% 0.00 in 325.00 W/m2
12:50 50.0 °F 40.6 °F 30.03 in SSE 1.0 mph 10.0 mph 70% 0.00 in 339.00 W/m2
12:55 50.0 °F 40.2 °F 30.03 in SE 9.0 mph 12.0 mph 69% 0.00 in 346.00 W/m2
13:00 50.1 °F 40.7 °F 30.03 in SSE 9.0 mph 12.0 mph 70% 0.00 in 345.00 W/m2
13:05 50.2 °F 40.4 °F 30.03 in SSE 5.0 mph 12.0 mph 69% 0.00 in 413.00 W/m2
13:10 50.4 °F 41.0 °F 30.03 in SE 13.0 mph 16.0 mph 70% 0.00 in 399.00 W/m2
13:15 50.5 °F 40.0 °F 30.03 in South 4.0 mph 15.0 mph 67% 0.00 in 394.00 W/m2
13:20 50.7 °F 40.5 °F 30.03 in Calm   13.0 mph 68% 0.00 in 311.00 W/m2
13:25 50.8 °F 41.0 °F 30.03 in South 2.0 mph 12.0 mph 69% 0.00 in 267.00 W/m2
13:30 50.9 °F 41.1 °F 30.03 in South 11.0 mph 14.0 mph 69% 0.00 in 278.00 W/m2
13:35 51.0 °F 41.2 °F 30.03 in SSE 5.0 mph 15.0 mph 69% 0.00 in 274.00 W/m2
13:40 51.1 °F 41.7 °F 30.02 in SSE 9.0 mph 13.0 mph 70% 0.00 in 274.00 W/m2
13:45 51.2 °F 42.1 °F 30.02 in SSE 1.0 mph 14.0 mph 71% 0.00 in 315.00 W/m2
13:50 51.2 °F 42.1 °F 30.02 in SE 4.0 mph 14.0 mph 71% 0.00 in 304.00 W/m2
13:55 51.3 °F 42.2 °F 30.03 in SSW 3.0 mph 11.0 mph 71% 0.00 in 287.00 W/m2
14:00 51.4 °F 42.7 °F 30.03 in SSE 8.0 mph 11.0 mph 72% 0.00 in 295.00 W/m2
14:05 51.5 °F 42.4 °F 30.03 in South 11.0 mph 14.0 mph 71% 0.00 in 264.00 W/m2
14:10 51.6 °F 42.9 °F 30.03 in SSE 5.0 mph 10.0 mph 72% 0.00 in 260.00 W/m2
14:15 51.7 °F 43.0 °F 30.03 in SSE 2.0 mph 12.0 mph 72% 0.00 in 322.00 W/m2
14:20 51.8 °F 44.8 °F 30.03 in South 13.0 mph 13.0 mph 77% 0.00 in 290.00 W/m2
14:25 51.8 °F 43.8 °F 30.03 in SSE 7.0 mph 17.0 mph 74% 0.00 in 250.00 W/m2
14:30 51.8 °F 44.1 °F 30.03 in SSE 8.0 mph 14.0 mph 75% 0.00 in 220.00 W/m2
14:35 51.7 °F 44.7 °F 30.03 in SE 12.0 mph 16.0 mph 77% 0.00 in 227.00 W/m2
14:40 51.4 °F 44.1 °F 30.03 in SSE 5.0 mph 17.0 mph 76% 0.00 in 209.00 W/m2
14:46 51.2 °F 44.2 °F 30.03 in South 7.0 mph 15.0 mph 77% 0.00 in 257.00 W/m2
14:51 51.1 °F 44.5 °F 30.03 in SE 8.0 mph 15.0 mph 78% 0.00 in 362.00 W/m2
14:56 51.0 °F 44.4 °F 30.03 in South 13.0 mph 15.0 mph 78% 0.00 in 378.00 W/m2
15:01 50.9 °F 44.6 °F 30.02 in South 10.0 mph 13.0 mph 79% 0.00 in 320.00 W/m2
15:06 50.9 °F 45.0 °F 30.02 in SSW 8.0 mph 15.0 mph 80% 0.00 in 334.00 W/m2
15:11 50.9 °F 44.6 °F 30.02 in SSE 7.0 mph 16.0 mph 79% 0.00 in 401.00 W/m2
15:16 50.9 °F 44.3 °F 30.03 in South 2.0 mph 14.0 mph 78% 0.00 in 297.00 W/m2
15:21 50.9 °F 44.6 °F 30.03 in South 10.0 mph 14.0 mph 79% 0.00 in 281.00 W/m2
15:26 51.0 °F 44.4 °F 30.03 in SSW 3.0 mph 15.0 mph 78% 0.00 in 221.00 W/m2
15:31 51.0 °F 44.4 °F 30.03 in South 6.0 mph 6.0 mph 78% 0.00 in 181.00 W/m2
15:36 51.0 °F 44.4 °F 30.03 in SSE 7.0 mph 7.0 mph 78% 0.00 in 211.00 W/m2
15:41 50.9 °F 45.0 °F 30.03 in Calm   1.0 mph 80% 0.00 in 178.00 W/m2
15:46 50.9 °F 45.0 °F 30.03 in South 2.0 mph 7.0 mph 80% 0.00 in 127.00 W/m2
15:51 50.8 °F 44.9 °F 30.03 in Calm   1.0 mph 80% 0.00 in 146.00 W/m2
15:54 50.8 °F 45.2 °F 30.03 in SSE 8.0 mph 15.0 mph 81% 0.00 in 167.00 W/m2
15:59 50.7 °F 45.1 °F 30.02 in SW 3.0 mph 12.0 mph 81% 0.00 in 243.00 W/m2
16:04 50.6 °F 45.3 °F 30.02 in SSE 9.0 mph 13.0 mph 82% 0.00 in 227.00 W/m2
16:09 50.6 °F 45.6 °F 30.02 in Calm   15.0 mph 83% 0.00 in 206.00 W/m2
16:14 50.5 °F 45.5 °F 30.02 in South 10.0 mph 12.0 mph 83% 0.00 in 142.00 W/m2
16:19 50.4 °F 45.4 °F 30.03 in SSE 7.0 mph 14.0 mph 83% 0.00 in 109.00 W/m2
16:24 50.4 °F 45.8 °F 30.03 in South 4.0 mph 11.0 mph 84% 0.00 in 62.00 W/m2
16:29 50.3 °F 45.7 °F 30.03 in Calm   12.0 mph 84% 0.00 in 69.00 W/m2
16:34 50.1 °F 45.5 °F 30.03 in SSE 1.0 mph 1.0 mph 84% 0.08 in 72.00 W/m2
16:39 50.0 °F 45.7 °F 30.03 in South 7.0 mph 10.0 mph 85% 0.07 in 47.00 W/m2
16:44 49.9 °F 45.6 °F 30.03 in Calm   1.0 mph 85% 0.07 in 53.00 W/m2
16:49 49.7 °F 45.7 °F 30.03 in Calm   1.0 mph 86% 0.06 in 58.00 W/m2
16:54 49.6 °F 45.6 °F 30.03 in Calm   1.0 mph 86% 0.06 in 47.00 W/m2
16:59 49.5 °F 45.5 °F 30.03 in Calm     86% 0.06 in 69.00 W/m2
17:04 49.5 °F 45.5 °F 30.03 in Calm     86% 0.05 in 62.00 W/m2
17:09 49.4 °F 45.4 °F 30.03 in Calm     86% 0.05 in 54.00 W/m2
17:14 49.3 °F 45.6 °F 30.03 in Calm     87% 0.05 in 58.00 W/m2
17:19 49.3 °F 45.6 °F 30.03 in Calm     87% 0.00 in 35.00 W/m2
17:24 49.2 °F 45.5 °F 30.03 in Calm     87% 0.00 in 53.00 W/m2
17:29 49.2 °F 45.5 °F 30.03 in Calm     87% 0.00 in 42.00 W/m2
17:34 49.1 °F 45.4 °F 30.03 in Calm     87% 0.00 in 25.00 W/m2
17:39 49.1 °F 45.4 °F 30.03 in Calm     87% 0.00 in 30.00 W/m2
17:44 49.1 °F 45.4 °F 30.03 in Calm     87% 0.00 in 26.00 W/m2
17:49 49.1 °F 45.7 °F 30.03 in Calm     88% 0.00 in 18.00 W/m2
17:54 49.1 °F 45.7 °F 30.02 in SSE 5.0 mph 7.0 mph 88% 0.00 in 49.00 W/m2
17:59 49.1 °F 45.7 °F 30.02 in Calm   1.0 mph 88% 0.00 in 65.00 W/m2
18:04 49.1 °F 45.7 °F 30.02 in SSE 4.0 mph 11.0 mph 88% 0.00 in 53.00 W/m2
18:09 49.1 °F 45.7 °F 30.02 in SSE 6.0 mph 11.0 mph 88% 0.00 in 40.00 W/m2
18:14 49.1 °F 45.7 °F 30.02 in Calm   9.0 mph 88% 0.00 in 40.00 W/m2
18:19 49.1 °F 45.7 °F 30.02 in South 9.0 mph 14.0 mph 88% 0.00 in 37.00 W/m2
18:25 49.1 °F 45.7 °F 30.01 in SSE 6.0 mph 14.0 mph 88% 0.00 in 60.00 W/m2
18:30 49.0 °F 45.6 °F 30.01 in SSE 6.0 mph 11.0 mph 88% 0.00 in 19.00 W/m2
18:35 49.0 °F 45.6 °F 30.01 in SSE 4.0 mph 12.0 mph 88% 0.00 in 25.00 W/m2
18:40 49.0 °F 45.6 °F 30.00 in SSE 8.0 mph 11.0 mph 88% 0.00 in 26.00 W/m2
18:45 49.0 °F 45.6 °F 30.00 in South 2.0 mph 10.0 mph 88% 0.00 in 16.00 W/m2
18:50 49.0 °F 45.6 °F 30.00 in Calm   11.0 mph 88% 0.00 in 16.00 W/m2
18:55 49.0 °F 45.6 °F 30.00 in Calm   13.0 mph 88% 0.00 in 9.00 W/m2
19:00 48.9 °F 45.5 °F 30.00 in SW 4.0 mph 13.0 mph 88% 0.00 in 7.00 W/m2
19:05 49.0 °F 45.6 °F 30.00 in SSW 9.0 mph 17.0 mph 88% 0.00 in 12.00 W/m2
19:10 48.9 °F 45.5 °F 30.00 in Calm   14.0 mph 88% 0.00 in 16.00 W/m2
19:15 48.9 °F 45.5 °F 30.00 in SSE 12.0 mph 14.0 mph 88% 0.00 in 11.00 W/m2
19:20 48.8 °F 45.4 °F 30.00 in South 4.0 mph 14.0 mph 88% 0.00 in 7.00 W/m2
19:25 48.7 °F 45.3 °F 30.00 in SSE 13.0 mph 16.0 mph 88% 0.00 in 9.00 W/m2
19:30 48.7 °F 45.3 °F 30.00 in SSE 13.0 mph 16.0 mph 88% 0.00 in 5.00 W/m2
19:35 48.6 °F 45.2 °F 30.00 in SSE 13.0 mph 24.0 mph 88% 0.00 in 5.00 W/m2
19:40 48.5 °F 45.1 °F 30.00 in South 4.0 mph 19.0 mph 88% 0.00 in 0.00 W/m2
19:45 48.4 °F 45.0 °F 30.00 in SSE 8.0 mph 24.0 mph 88% 0.00 in 0.00 W/m2
19:46 48.3 °F 44.9 °F 30.00 in South 7.0 mph 11.0 mph 88% 0.00 in 0.00 W/m2
19:51 48.3 °F 44.9 °F 30.00 in SSW 3.0 mph 8.0 mph 88% 0.00 in 0.00 W/m2
19:56 48.2 °F 44.8 °F 30.00 in South 14.0 mph 14.0 mph 88% 0.00 in 0.00 W/m2
20:01 48.2 °F 46.0 °F 30.00 in South 12.0 mph 13.0 mph 92% 0.00 in 0.00 W/m2
20:06 48.2 °F 46.0 °F 30.00 in South 6.0 mph 9.0 mph 92% 0.00 in 0.00 W/m2
20:11 48.2 °F 46.0 °F 30.00 in South 16.0 mph 16.0 mph 92% 0.00 in 0.00 W/m2
20:16 48.2 °F 44.8 °F 30.01 in South 13.0 mph 13.0 mph 88% 0.00 in 0.00 W/m2
20:21 48.1 °F 44.7 °F 30.01 in South 10.0 mph 14.0 mph 88% 0.00 in 0.00 W/m2
20:26 48.1 °F 44.7 °F 30.01 in SSW 4.0 mph 14.0 mph 88% 0.00 in 0.00 W/m2
20:31 48.1 °F 44.7 °F 30.01 in South 10.0 mph 14.0 mph 88% 0.00 in 0.00 W/m2
20:36 48.1 °F 44.7 °F 30.01 in SSE 10.0 mph 11.0 mph 88% 0.00 in 0.00 W/m2
20:41 48.1 °F 44.7 °F 30.01 in SSE 9.0 mph 14.0 mph 88% 0.00 in 0.00 W/m2
20:46 48.1 °F 44.7 °F 30.02 in South 12.0 mph 12.0 mph 88% 0.00 in 0.00 W/m2
20:51 48.1 °F 44.7 °F 30.02 in SW 5.0 mph 15.0 mph 88% 0.00 in 0.00 W/m2
20:56 48.1 °F 44.7 °F 30.02 in South 6.0 mph 7.0 mph 88% 0.00 in 0.00 W/m2
21:01 48.1 °F 44.7 °F 30.02 in SW 4.0 mph 4.0 mph 88% 0.00 in 0.00 W/m2
21:06 48.1 °F 44.7 °F 30.02 in South 7.0 mph 12.0 mph 88% 0.00 in 0.00 W/m2
21:11 48.1 °F 44.7 °F 30.01 in SSE 8.0 mph 9.0 mph 88% 0.13 in 0.00 W/m2
21:16 48.0 °F 44.6 °F 30.01 in SSW 13.0 mph 13.0 mph 88% 0.12 in 0.00 W/m2
21:21 48.1 °F 44.7 °F 30.01 in Calm   8.0 mph 88% 0.08 in 0.00 W/m2
21:26 48.1 °F 44.7 °F 30.01 in South 12.0 mph 14.0 mph 88% 0.08 in 0.00 W/m2
21:31 48.0 °F 44.6 °F 30.01 in South 9.0 mph 10.0 mph 88% 0.05 in 0.00 W/m2
21:36 48.0 °F 44.6 °F 30.02 in SSW 5.0 mph 12.0 mph 88% 0.05 in 0.00 W/m2
21:41 48.0 °F 44.6 °F 30.02 in SSW 6.0 mph 9.0 mph 88% 0.05 in 0.00 W/m2
21:46 48.0 °F 44.6 °F 30.01 in SSW 16.0 mph 18.0 mph 88% 0.04 in 0.00 W/m2
21:51 47.9 °F 44.5 °F 30.01 in South 5.0 mph 11.0 mph 88% 0.00 in 0.00 W/m2
21:56 47.9 °F 44.5 °F 30.02 in South 11.0 mph 15.0 mph 88% 0.00 in 0.00 W/m2
22:01 47.8 °F 44.4 °F 30.02 in SSW 13.0 mph 15.0 mph 88% 0.00 in 0.00 W/m2
22:06 47.8 °F 44.4 °F 30.02 in South 11.0 mph 11.0 mph 88% 0.00 in 0.00 W/m2
22:11 47.8 °F 44.4 °F 30.02 in South 6.0 mph 14.0 mph 88% 0.00 in 0.00 W/m2
22:16 47.8 °F 44.4 °F 30.02 in South 7.0 mph 14.0 mph 88% 0.00 in 0.00 W/m2
22:21 47.7 °F 44.3 °F 30.02 in South 8.0 mph 13.0 mph 88% 0.00 in 0.00 W/m2
22:26 47.7 °F 44.3 °F 30.02 in SSE 14.0 mph 21.0 mph 88% 0.00 in 0.00 W/m2
22:31 47.7 °F 44.3 °F 30.02 in SSE 11.0 mph 13.0 mph 88% 0.00 in 0.00 W/m2
22:37 47.6 °F 44.2 °F 30.02 in SSW 13.0 mph 14.0 mph 88% 0.00 in 0.00 W/m2
22:42 47.5 °F 44.1 °F 30.02 in SSW 14.0 mph 15.0 mph 88% 0.00 in 0.00 W/m2
22:47 47.5 °F 44.1 °F 30.02 in Calm     88% 0.15 in 0.00 W/m2
22:52 47.4 °F 44.0 °F 30.02 in SSW 5.0 mph 11.0 mph 88% 0.13 in 0.00 W/m2
22:57 47.4 °F 44.0 °F 30.02 in South 7.0 mph 12.0 mph 88% 0.13 in 0.00 W/m2
23:02 47.4 °F 44.0 °F 30.03 in Calm     88% 0.07 in 0.00 W/m2
23:07 47.4 °F 44.0 °F 30.03 in Calm     88% 0.07 in 0.00 W/m2
23:12 47.3 °F 43.9 °F 30.03 in SSE 7.0 mph 7.0 mph 88% 0.07 in 0.00 W/m2
23:17 47.4 °F 44.0 °F 30.03 in SSW 5.0 mph 10.0 mph 88% 0.08 in 0.00 W/m2
23:22 47.4 °F 44.0 °F 30.03 in Calm   1.0 mph 88% 0.08 in 0.00 W/m2
23:27 47.3 °F 43.9 °F 30.03 in South 8.0 mph 10.0 mph 88% 0.06 in 0.00 W/m2
23:32 47.3 °F 43.9 °F 30.02 in Calm     88% 0.06 in 0.00 W/m2
23:37 47.3 °F 43.9 °F 30.03 in SSW 8.0 mph 11.0 mph 88% 0.06 in 0.00 W/m2
23:42 47.2 °F 43.8 °F 30.03 in SSE 5.0 mph 10.0 mph 88% 0.04 in 0.00 W/m2
23:47 47.2 °F 43.8 °F 30.03 in Calm     88% 0.04 in 0.00 W/m2
23:52 47.1 °F 44.0 °F 30.03 in Calm     89% 0.04 in 0.00 W/m2
23:57 47.1 °F 44.0 °F 30.03 in Calm     89% 0.05 in 0.00 W/m2
Foresthill Weather
 WU-history PHP script courtesy of   Juneau County Weather.
powered by Cumulus v1.9.3 (1059)
Ambient Weather VWS v14.00
Top Contact Website Map Copyright © 2007 - 2018 Foresthillweather.com Never base important decisions on this or any weather information obtained from the Internet